Tracking 25734 objects as of 26-May-2022
HD Live streaming from Space Station
objects crossing your sky now

OV1-21

Track OV1-21 now!
10-day predictions
OV1-21 is classified as:


NORAD ID: 5397
Int'l Code: 1971-067B
Perigee: 783.0 km
Apogee: 898.5 km
Inclination: 87.6 °
Period: 101.6 minutes
Semi major axis: 7211 km
RCS: 2.316 m2 (large)
Launch date: August 7, 1971
Source: United States (US)
Launch site: AIR FORCE WESTERN TEST RANGE (AFWTR)
aabbcc
Your satellite tracking list
Your tracking list is empty




NASA's NSSDC Master Catalog

Two Line Element Set (TLE):
1 05397U 71067B   22145.87498131  .00000139  00000-0  58452-4 0  9991
2 05397  87.6252 110.6358 0080074 266.9974  92.2049 14.17572767624265
Source of the keplerian elements: AFSPC